Location: Dittelbrunn
(50.0738°N, 10.2196°E)
Time: 06:32:54
(UTC+00:00)

SWAS - Pass Details

Date: 18 September 2020
Orbit: 581 x 590 km, 69.9° (Epoch: 18 October)

Event Time Altitude Azimuth Distance (km) Brightness Sun altitude
Rises 19:31:46 0° 328° (NNW) 2,831 9.0 -20.2°
Reaches altitude 10° 19:34:00 10° 329° (NNW) 1,924 7.9 -20.5°
Maximum altitude 19:38:19 90° 264° (W) 594 4.3 -21.1°
Enters shadow 19:39:03 61° 151° (SSE) 667 4.4 -21.2°
